RH
58 58 58 54 59 58 55 55 52 50 47 41 44 46 42 41 42 44 48 47 49 48 56 62 67 68 70 68 70 79 78 91 93 75 78 75 44 43 46 44 34 15 9 11
53 57 60 59 56 54 54 52 54 53 47 40 46 49 42 44 48 47 47 48 50 57 59 62 66 67 64 69 74 87 89 89 53 54 49 39 40 44 40 24 10 11 11 6
60 60 62 66 52 54 54 51 43 45 30 44 50 44 44 44 43 43 45 53 55 54 53 51 52 64 70 70 76 86 66 39 40 38 39 41 42 36 17 11 12 9 6 6
53 55 55 49 47 48 48 48 51 50 51 54 55 53 53 50 46 54 58 59 55 45 33 40 57 66 68 74 62 56 44 37 38 39 42 41 30 14 13 13 9 5 6 7
48 48 45 38 39 38 39 44 47 51 58 59 59 55 46 45 57 62 57 52 37 22 22 31 42 51 56 49 40 39 36 41 42 43 39 24 16 16 15 11 5 6 7 8
49 38 48 40 39 35 36 36 32 37 42 47 47 48 56 64 61 55 46 32 18 17 19 24 30 34 36 35 36 38 42 46 45 39 23 18 18 19 15 7 6 7 8 8
43 36 34 34 31 40 51 36 36 51 54 56 66 68 66 60 53 44 30 20 19 20 22 26 30 35 36 36 40 44 49 49 40 26 21 20 21 19 9 8 9 9 9 8
47 42 43 48 45 47 46 53 54 65 72 73 71 66 60 53 45 30 22 21 23 24 26 29 34 37 37 40 43 48 50 40 28 24 23 25 21 12 10 11 11 10 8 8
45 39 36 39 41 52 55 60 54 53 58 62 64 62 55 42 30 25 26 26 24 24 28 33 37 37 36 38 44 48 41 31 26 26 29 25 15 13 12 13 12 10 9 9
55 56 57 58 58 61 63 61 62 66 67 62 61 56 43 32 29 28 27 24 22 26 32 36 36 36 39 44 46 41 31 28 29 28 23 17 17 17 15 14 11 11 11 10
63 63 63 63 61 59 61 66 71 72 65 61 51 42 34 32 31 26 20 17 21 30 36 38 39 40 43 44 37 31 31 30 29 24 20 19 18 17 16 13 12 13 12 12
71 70 71 73 74 75 75 75 75 68 60 47 39 36 34 32 24 18 16 22 29 36 41 42 43 44 40 33 34 34 32 29 25 23 22 20 19 17 15 13 14 15 16 21
71 54 84 88 86 81 79 75 74 65 48 40 38 36 31 26 20 17 20 28 36 41 44 44 41 35 35 39 39 37 30 28 27 27 24 23 22 17 14 13 15 16 19 27
76 52 82 89 88 92 89 73 51 41 38 36 34 30 21 11 16 20 27 33 38 39 38 36 37 43 48 53 49 40 36 35 33 30 28 24 20 16 15 15 15 15 20 32
66 74 52 48 53 58 51 41 39 37 35 32 19 11 8 9 13 20 30 36 38 38 38 43 50 58 63 64 55 43 40 38 35 30 26 22 19 17 18 19 19 18 20 30
50 64 62 56 53 49 40 39 36 34 24 17 11 7 5 7 15 28 38 42 43 45 49 54 60 66 71 72 58 46 44 39 33 29 26 22 19 19 21 22 21 21 32 41
42 58 58 50 42 42 42 37 35 23 17 12 7 8 11 17 28 38 46 48 51 54 58 60 65 72 79 80 61 48 39 34 32 30 25 21 20 22 24 23 26 35 42 46
41 48 50 51 45 40 40 37 26 19 11 8 8 12 16 21 35 50 54 55 59 63 67 70 75 82 90 80 55 43 37 34 31 27 23 21 23 24 26 28 34 46 47 48
50 56 50 46 43 43 38 28 24 16 12 9 8 16 28 35 48 58 63 65 68 73 79 84 86 90 86 65 47 40 37 32 28 23 21 21 25 26 27 38 46 50 52 54
54 46 42 40 44 39 34 29 23 16 11 9 16 28 37 47 60 68 72 75 79 83 86 88 87 86 71 49 43 39 32 27 23 21 21 23 25 26 33 49 53 52 56 61
45 45 46 44 39 38 34 27 19 12 12 12 18 30 41 56 72 77 78 79 78 81 88 89 88 75 51 43 37 31 26 23 21 20 22 24 25 34 50 52 52 56 64 67
49 47 44 42 39 33 28 20 14 13 13 15 22 35 47 62 77 83 81 80 82 87 88 90 76 53 43 34 30 26 22 20 20 22 24 27 38 51 53 52 55 63 67 66
50 44 39 34 32 30 22 14 14 14 19 30 38 45 58 72 82 86 85 88 89 89 89 69 52 40 32 29 25 21 20 20 24 27 33 44 53 54 55 56 61 67 68 67
37 33 32 33 32 22 16 13 11 15 26 36 48 59 73 81 87 89 89 89 89 84 59 46 33 30 27 22 20 20 22 27 31 37 48 55 56 54 57 64 68 72 69 67
32 34 35 32 26 19 12 12 15 23 34 48 66 77 82 85 91 95 95 91 66 50 37 32 29 24 21 20 19 21 25 35 46 52 52 54 57 62 66 69 70 70 67 65
34 34 30 22 14 12 13 18 26 38 52 64 76 84 89 91 92 88 66 51 39 33 31 26 23 21 19 18 19 26 39 51 56 55 56 60 66 70 68 69 68 70 70 69
35 29 22 15 12 14 18 25 37 57 72 80 88 91 92 85 64 54 43 35 33 27 24 24 22 20 18 21 31 47 56 59 60 60 66 71 73 74 71 70 69 64 64 64
Wind_Speed
21 29 28 33 35 37 38 38 27 33 32 27 25 24 19 19 20 21 21 21 22 25 22 22 24 26 28 31 33 35 36 38 42 46 47 50 48 45 43 43 44 46 49 51
15 19 22 30 37 36 36 37 38 39 37 30 27 25 21 22 21 22 22 24 22 22 22 22 25 27 29 31 32 35 37 41 45 45 47 45 43 42 43 43 45 47 50 54
10 13 16 16 32 32 35 38 37 40 35 31 26 21 18 20 24 26 25 22 22 21 22 25 26 27 29 31 33 36 40 43 44 44 43 41 41 41 43 45 47 49 53 56
8 12 2 12 14 23 27 26 30 35 35 27 29 30 28 25 22 22 21 20 21 25 26 25 25 27 30 32 35 37 40 42 42 40 39 39 40 42 45 47 49 52 55 58
8 16 6 8 15 18 23 26 27 24 27 27 26 25 24 22 21 20 20 21 25 24 22 23 25 27 29 32 35 37 39 40 39 39 38 39 42 45 47 49 51 53 57 59
12 5 6 6 15 15 12 18 19 22 24 22 22 22 21 19 19 19 22 25 22 21 21 22 24 27 30 34 34 36 37 36 37 37 39 43 46 48 49 51 52 53 56 57
20 7 5 9 7 10 10 8 10 18 18 18 19 18 17 17 19 23 23 20 20 20 21 23 25 28 32 34 35 35 35 35 36 39 43 45 48 49 50 51 53 54 55 57
16 8 10 17 14 14 11 10 9 15 17 17 16 15 16 20 22 21 20 20 21 22 24 26 28 31 33 33 33 33 34 35 38 41 45 47 49 50 50 51 53 55 56 56
14 9 10 9 17 20 15 8 7 9 10 12 14 18 21 21 19 19 20 22 24 26 27 28 30 31 31 31 31 32 34 37 40 43 45 48 49 50 51 52 53 54 54 54
11 13 9 8 12 14 12 12 12 12 13 16 19 20 18 18 19 21 24 25 26 27 28 28 29 30 30 31 32 34 36 40 43 44 46 47 48 49 51 51 53 52 51 53
16 15 13 13 14 14 14 14 15 16 18 20 18 17 17 18 21 23 25 26 27 26 26 27 28 29 30 31 33 36 39 42 43 45 46 47 48 50 51 51 49 49 49 48
18 18 16 14 15 17 17 16 18 19 17 16 16 17 19 22 24 25 26 25 25 25 26 26 26 28 30 33 36 39 40 42 44 46 47 49 50 50 49 47 46 44 43 43
16 16 20 19 17 16 16 16 20 16 15 16 16 19 21 23 26 26 25 25 25 25 24 24 25 28 31 34 37 39 41 43 45 46 48 50 50 49 49 47 46 44 43 42
19 12 16 18 18 20 20 17 14 14 14 16 19 21 25 27 26 26 25 25 24 23 23 24 26 29 32 35 38 40 41 43 45 46 48 48 49 50 49 49 49 47 44 42
19 17 12 11 11 11 10 11 12 13 15 18 21 25 27 27 27 26 24 23 22 23 24 26 27 30 33 37 39 40 42 44 45 47 48 49 49 48 47 46 46 46 45 43
16 17 18 15 13 10 10 11 12 14 17 22 27 27 27 26 25 24 22 21 21 24 26 26 29 32 36 39 41 41 42 43 46 48 48 49 48 46 45 44 44 45 45 45
12 14 13 10 9 10 10 11 13 16 22 25 26 25 25 24 23 23 21 21 23 25 28 30 32 35 38 41 42 42 44 46 47 47 47 47 46 45 43 44 44 44 44 44
14 11 7 9 9 10 11 13 18 23 25 27 27 27 25 24 23 22 22 23 25 27 30 31 34 37 40 42 43 45 46 47 48 48 48 46 45 43 42 42 42 43 44 43
12 9 9 8 9 11 14 19 23 28 29 29 28 26 24 24 23 23 23 25 27 28 30 33 36 40 43 44 45 46 46 47 47 46 46 45 43 40 40 40 41 42 43 41
14 12 9 9 12 17 21 23 28 30 28 27 26 25 25 25 24 24 24 25 29 30 33 36 39 42 43 44 46 46 46 46 46 46 44 43 41 39 39 39 40 40 39 36
13 10 11 14 18 22 25 30 29 27 27 26 26 26 26 26 25 25 26 27 31 33 36 39 42 43 44 46 46 46 46 46 45 44 42 40 39 38 38 39 38 38 35 31
11 12 15 19 23 28 29 27 26 26 27 28 28 28 28 27 26 27 29 31 33 36 38 41 42 43 45 45 45 46 45 44 42 41 40 38 37 37 37 37 36 33 30 27
12 17 22 25 26 25 25 24 25 26 27 28 29 29 28 28 28 29 30 33 35 38 40 41 42 43 44 44 45 44 43 42 40 38 37 36 36 36 35 34 32 31 28 25
18 22 23 23 23 23 24 25 26 27 28 29 29 28 27 28 29 30 31 34 37 38 39 41 42 43 44 44 43 42 41 38 37 36 35 35 34 34 32 31 29 27 24 22
18 20 21 22 22 23 25 25 26 28 28 27 26 26 27 28 28 30 32 34 35 37 38 39 41 42 42 42 41 39 37 36 35 35 35 34 33 31 29 28 26 24 22 20
19 20 21 21 22 24 25 26 27 28 27 26 27 27 27 27 28 30 31 34 36 37 39 41 41 41 40 39 38 36 35 35 35 34 33 32 30 28 26 24 22 21 20 19
20 20 21 22 23 25 26 27 28 27 27 27 26 26 25 25 27 30 32 33 36 38 39 38 38 38 37 37 36 35 35 35 34 34 31 28 26 25 23 22 20 19 19 17
Wind_Direction
225 225 222 216 217 214 221 229 228 246 249 255 262 270 262 234 225 231 239 251 265 281 276 273 278 284 288 295 301 304 309 309 309 312 316 318 321 319 319 319 320 321 320 319
218 216 215 223 226 228 232 239 243 250 255 254 261 267 242 232 235 243 252 265 271 272 277 280 281 284 291 298 301 304 306 306 309 316 318 319 317 316 316 318 320 319 320 321
203 199 209 229 228 230 234 239 245 245 251 251 255 237 232 245 252 257 261 262 273 282 286 285 286 289 293 298 301 300 304 313 317 318 317 314 314 316 317 318 319 321 323 323
170 162 199 237 230 232 238 244 246 249 252 249 245 246 255 256 252 254 261 272 282 289 290 287 286 288 292 295 300 306 310 314 316 315 312 312 316 317 318 319 322 323 323 324
198 200 257 236 228 223 221 234 237 241 243 243 244 245 245 246 251 260 272 280 289 292 289 286 285 287 292 297 303 307 313 313 312 310 313 316 317 318 320 321 321 322 323 324
216 192 204 240 239 231 223 245 240 241 241 240 237 230 237 245 258 268 281 292 294 293 292 290 293 295 298 302 308 310 312 310 309 314 318 319 320 320 320 320 322 323 324 324
217 216 244 247 239 212 202 270 242 226 222 219 219 229 243 255 269 286 295 298 301 303 304 303 301 300 302 308 310 311 309 311 316 319 319 319 318 317 319 322 322 324 325 324
217 216 244 233 226 214 238 245 221 214 217 224 239 247 259 279 294 301 304 309 313 313 309 306 304 303 305 307 307 308 313 317 318 317 318 317 317 319 321 322 323 325 325 322
207 217 217 221 222 229 241 247 219 210 221 242 263 278 292 299 303 308 313 318 317 312 308 305 303 304 305 304 309 314 316 317 317 318 317 317 318 321 323 324 324 324 323 323
217 235 235 229 225 228 238 242 242 242 255 270 281 291 298 304 310 314 316 315 312 308 304 302 304 304 306 311 314 314 316 317 317 316 316 319 322 323 324 326 325 325 325 326
237 240 239 236 231 233 237 246 255 265 279 289 294 299 303 308 312 313 314 311 305 303 302 304 306 308 311 312 314 316 317 316 315 316 320 323 324 325 326 326 326 327 328 328
264 261 251 246 242 244 250 253 263 278 288 293 296 302 308 312 314 312 308 304 305 305 305 309 311 309 312 314 315 316 316 315 317 322 324 324 325 325 324 325 326 329 329 328
290 275 253 247 249 245 246 259 282 282 284 293 300 305 309 311 309 307 308 308 306 308 310 310 310 310 313 315 316 315 316 319 322 324 325 325 324 323 324 325 328 329 328 327
287 278 243 241 246 250 258 265 270 287 294 298 304 310 310 308 309 309 307 307 308 307 306 307 309 310 314 315 316 317 319 322 323 324 323 323 324 326 327 327 326 327 328 327
275 248 248 241 230 228 244 273 286 289 299 307 310 311 311 310 309 308 308 307 305 303 303 305 309 312 314 316 318 320 322 323 322 322 324 326 325 325 326 325 325 325 325 327
254 232 231 234 238 249 274 279 288 300 306 311 314 313 310 308 306 305 304 302 301 301 303 308 309 312 316 319 322 322 321 321 323 324 325 325 324 324 324 323 323 325 328 328
228 208 213 230 255 268 273 283 288 302 311 314 313 312 312 310 307 305 303 302 301 302 304 307 309 312 317 320 320 321 322 324 323 324 323 322 323 324 323 324 326 326 327 327
209 196 232 259 259 270 281 291 304 312 317 319 318 316 312 308 304 301 301 301 301 302 304 308 311 314 316 318 321 323 323 322 323 323 322 322 322 323 325 323 324 325 325 327
210 251 249 238 264 278 289 301 311 317 317 316 313 309 307 305 303 301 299 299 300 303 306 309 311 314 318 319 320 321 322 322 321 319 320 321 322 324 324 325 324 326 326 328
244 232 241 262 275 283 295 306 313 312 310 309 311 311 308 305 301 298 298 300 300 305 309 312 313 314 316 318 319 320 320 319 318 320 321 322 323 323 324 325 325 324 326 329
210 227 249 273 291 300 303 306 306 307 311 313 312 309 308 306 302 299 298 299 303 308 310 310 312 315 317 317 318 318 319 319 320 320 320 322 323 324 324 324 325 325 327 327
226 251 278 294 297 298 298 299 302 306 310 311 310 310 309 307 304 301 301 302 304 306 308 311 313 314 315 316 318 318 318 319 319 319 322 323 324 323 323 324 323 323 325 325
275 287 289 291 291 292 294 298 305 310 313 315 314 312 310 307 304 302 300 301 303 306 309 311 312 314 315 317 317 318 318 319 320 321 321 321 322 322 322 321 323 326 328 326
284 284 285 286 287 290 296 303 309 312 314 313 310 307 304 302 299 297 298 302 305 309 310 312 315 316 317 318 318 318 318 319 320 320 321 321 320 319 321 323 324 324 326 326
291 287 284 285 289 295 301 304 307 307 307 307 304 301 299 298 297 299 303 305 308 310 313 315 315 316 318 319 318 318 319 321 319 319 321 321 320 320 321 322 322 323 327 327
293 288 287 290 294 298 301 304 304 304 303 303 301 300 300 301 303 305 308 311 313 314 315 316 318 318 318 319 320 320 320 320 320 320 319 318 318 320 321 320 319 322 323 324
285 285 287 290 295 299 302 303 303 303 302 300 299 301 303 305 308 310 312 314 315 315 316 318 319 319 319 321 322 321 320 320 319 318 317 317 318 319 318 317 315 317 319 322